Location: C.E.K. Mees Observatory
(42.7003°N, 77.4088°W)
Time: 19:28:09
(UTC-04:00)

Vanguard 1 Rocket - All Passes

Search period start: 21 June 2018 00:00
Search period end: 01 July 2018 00:00
Orbit: 653 x 4224 km, 34.3° (Epoch: 21 June)

Date Brightness Start Highest point End Pass type
(mag) Time Alt. Az. Time Alt. Az. Time Alt. Az.
21 Jun - 01:41:41 10° SW 01:42:47 10° SSW 01:43:56 10° SSW visible
21 Jun - 17:11:04 10° SSW 17:14:21 20° SSE 17:18:05 10° ESE daylight
21 Jun - 19:33:48 10° WSW 19:38:27 39° S 19:45:42 10° ESE daylight
21 Jun - 21:57:38 10° WSW 22:03:41 32° SSW 22:13:51 10° SE visible
22 Jun - 00:24:37 10° WSW 00:30:25 15° SSW 00:38:08 10° S visible
22 Jun - 16:02:14 10° S 16:03:55 12° SSE 16:05:37 10° SE daylight
22 Jun - 18:23:46 10° SW 18:27:50 33° S 18:33:19 10° ESE daylight
22 Jun - 20:47:16 10° WSW 20:52:27 35° S 21:01:00 10° SE daylight
22 Jun - 23:12:24 10° WSW 23:18:25 20° SSW 23:27:20 10° SSE visible
23 Jun - 17:13:48 10° SW 17:17:23 24° SSE 17:21:25 10° ESE daylight
23 Jun - 19:37:05 10° WSW 19:41:35 36° S 19:48:25 10° ESE daylight
23 Jun - 22:01:19 10° WSW 22:06:50 25° SSW 22:15:26 10° SSE visible
24 Jun - 16:04:01 10° SSW 16:06:55 16° SSE 16:09:46 10° ESE daylight
24 Jun - 18:26:54 10° WSW 18:30:57 33° S 18:36:17 10° ESE daylight
24 Jun - 20:50:46 10° WSW 20:55:37 29° SSW 21:03:11 10° SE daylight
24 Jun - 23:17:17 10° SW 23:21:35 14° SSW 23:27:07 10° S visible
25 Jun - 14:55:18 10° S 14:56:18 11° SSE 14:57:15 10° SE daylight
25 Jun - 17:16:41 10° SW 17:20:28 28° S 17:24:39 10° ESE daylight
25 Jun - 19:40:26 10° WSW 19:44:44 31° S 19:51:01 10° SE daylight
25 Jun - 22:05:23 10° WSW 22:10:01 18° SSW 22:16:32 10° SSE visible
26 Jun - 16:06:24 10° SW 16:09:59 21° SSE 16:13:22 10° ESE daylight
26 Jun - 18:30:07 10° WSW 18:34:05 32° S 18:39:11 10° ESE daylight
26 Jun - 20:54:26 10° WSW 20:58:48 22° SSW 21:05:05 10° SSE daylight
27 Jun - 14:56:13 10° SSW 14:59:23 16° SSE 15:02:08 10° SE daylight
27 Jun - 17:19:41 10° WSW 17:23:35 30° S 17:27:47 10° ESE daylight
27 Jun - 19:43:52 10° WSW 19:47:54 26° S 19:53:27 10° SE daylight
27 Jun - 22:10:25 10° SW 22:13:12 12° SSW 22:16:33 10° S visible
28 Jun - 13:46:48 10° S 13:48:33 11° SSE 13:50:09 10° SE daylight
28 Jun - 16:09:04 10° SW 16:13:06 25° S 16:16:46 10° ESE daylight
28 Jun - 18:33:24 10° WSW 18:37:14 29° S 18:41:59 10° SE daylight
28 Jun - 20:58:30 10° SW 21:01:58 16° SSW 21:06:30 10° SSE daylight
29 Jun - 14:58:15 10° SW 15:02:30 21° SSE 15:05:57 10° ESE daylight
29 Jun - 17:22:47 10° WSW 17:26:43 30° S 17:30:51 10° ESE daylight
29 Jun - 19:47:31 10° WSW 19:51:03 20° SSW 19:55:38 10° SSE daylight
30 Jun - 13:47:29 10° SSW 13:51:42 17° SSE 13:55:01 10° ESE daylight
30 Jun - 16:11:53 10° SW 16:16:13 29° S 16:20:03 10° ESE daylight
30 Jun - 18:36:46 10° WSW 18:40:22 24° S 18:44:39 10° SE daylight
30 Jun - 21:04:04 10° SSW 21:05:09 10° SSW 21:06:18 10° S daylight
